Skip Page Navigation
NASA JPL Caltech
NASA Logo - Jet Propulsion Laboratory + View the NASA Portal
+ Center for Near-Earth Object Studies
JPL Home Earth Solar System Stars & Galaxies Technology
JPL Solar System Dynamics
BODIES ORBITS EPHEMERIDES TOOLS PHYSICAL DATA DISCOVERY FAQ SITE MAP
JPL Small-Body Database Browser
Search: [ help ]  
(2015 FS332)
Classification: Apollo [NEO, PHA]          SPK-ID: 3715376
Ephemeris | Orbit Diagram | Orbital Elements | Mission Design | Physical Parameters | Close-Approach Data ]

[ show orbit diagram ]
Orbital Elements at Epoch 2459000.5 (2020-May-31.0) TDB
Reference: JPL 82 (heliocentric ecliptic J2000)
 Element Value Uncertainty (1-sigma)   Units 
e .4749299383987121 4.8286e-08  
a 1.806806578431023 1.5257e-07 au
q .9487000414383892 2.7928e-08 au
i 35.13071864525444 9.5209e-06 deg
node 193.5180827910101 1.4642e-06 deg
peri 135.7574852081559 5.8435e-06 deg
M 344.3500733903171 8.9576e-05 deg
tp 2459039.063436309034
(2020-Jul-08.56343631)
0.00022561 TDB
period 887.0864009459818
2.43
0.00011236
3.076e-07
d
yr
n .4058229273000903 5.1402e-08 deg/d
Q 2.664913115423656 2.2503e-07 au
  Orbit Determination Parameters
   # obs. used (total)      510  
   # delay obs. used      3  
   # Doppler obs. used      1  
   data-arc span      1795 days (4.91 yr)  
   first obs. used      2015-03-28  
   last obs. used      2020-02-25  
   planetary ephem.      DE431  
   SB-pert. ephem.      SB431-N16  
   condition code      1  
   norm. resid. RMS      .28807  
   source      ORB  
   producer      Otto Matic  
   solution date      2020-Feb-26 07:26:52  

Additional Information
 Earth MOID = .0410914 au 
 Jupiter MOID = 3.07043 au 
 T_jup = 3.728 
[ hide covariance matrix ]
Orbital Elements at Epoch 2457208.5 (2015-Jul-05.0) TDB
Reference: JPL 82 (heliocentric ecliptic J2000)
 Element Value Uncertainty (1-sigma)   Units 
e .4755382184828744 4.8126e-08  
q .9477796649355563 2.7797e-08 au
tp 2457265.029246129195
(2015-Aug-30.52924613)
4.1031e-06 TDB
node 193.5390559442517 1.468e-06 deg
peri 135.7530534626473 5.834e-06 deg
i 35.12451901643389 9.5232e-06 deg
  Orbit Determination Parameters
   # obs. used (total)      510  
   # delay obs. used      3  
   # Doppler obs. used      1  
   data-arc span      1795 days (4.91 yr)  
   first obs. used      2015-03-28  
   last obs. used      2020-02-25  
   planetary ephem.      DE431  
   SB-pert. ephem.      SB431-N16  
   condition code      1  
   norm. resid. RMS      .28807  
   source      ORB  
   producer      Otto Matic  
   solution date      2020-Feb-26 07:26:52  

Additional Information
 Jupiter MOID = 3.07043 au 
 T_jup = 3.728 
Orbit Covariance (6×6)
  e q tp node peri i
e 2.316081650942109E-15 -5.495144489979426E-16 1.512444839476434E-14 3.202009132909116E-15 -3.013073186318459E-14 5.335379562528545E-14
q -5.495144489979426E-16 7.726682700060907E-16 7.184809036370267E-14 -1.267864253293946E-14 1.235200043627125E-13 3.53380606004296E-15
tp 1.512444839476434E-14 7.184809036370267E-14 1.683514357343593E-11 1.338105663985212E-12 2.22564256812565E-11 -5.332205174875479E-12
node 3.202009132909116E-15 -1.267864253293946E-14 1.338105663985212E-12 2.155170385454927E-12 -7.54292283583468E-13 -1.126086347731439E-11
peri -3.013073186318459E-14 1.235200043627125E-13 2.22564256812565E-11 -7.54292283583468E-13 3.403558970148888E-11 5.969530095482016E-12
i 5.335379562528545E-14 3.53380606004296E-15 -5.332205174875479E-12 -1.126086347731439E-11 5.969530095482016E-12 9.069062895041781E-11

Ephemeris | Orbit Diagram | Orbital Elements | Mission Design | Physical Parameters | Close-Approach Data ]

Physical Parameter Table
Parameter Symbol Value Units Sigma Reference Notes
absolute magnitude H 18.4   n/a E2015-TC1  
rotation period rot_per 2.406 h n/a LCDB (Rev. 2019-August); Warner et al., 2009 Published Reference List:
[Godunova, V.; Reshetnyk, V.; Andreev, M.; Simon, A.; Vasylenko, V. (2016) Minor Planet Bull. 43, 156-157.]
[Warner, B.D. (2016) Minor Planet Bull. 43, 66-79.]
[Oey, J.; Williams, H.; Groom, R. (2017) Minor Planet Bull. 44, 200-204.]

[ show close-approach data ]
Ephemeris | Orbit Diagram | Orbital Elements | Mission Design | Physical Parameters | Close-Approach Data ]
ABOUT SSD CREDITS/AWARDS PRIVACY/COPYRIGHT GLOSSARY LINKS
FirstGov 2020-Oct-31 18:01 UT
(server date/time)  
NASA Home Page
Site Manager:   Ryan S. Park
Webmaster  Alan B. Chamberlin